Notices

What's New in latest Release from April 7th, 2021:

- Updated Glossary, including Speed of Maximum Gust, and Total Hourly Precipitation

- Updated national and regional climate services offices contacts and prices information

- Addition of station inventory lists for 1981-2010, 1971-2000, and 1961-1990 Normals.

If you haven't already, please take our survey and provide feedback about our website: https://eccc.sondage-survey.ca/f/LanguageSelection.aspx?s=442ca660-fcf1-47c0-95a9-59707d6fd709

Hourly Data Report for January 23, 2006

TORONTO CITY
ONTARIO

43°40'00.000" N
79°24'00.000" W
112.50 m
6158355
71508
XTO

Download Data

Hourly Data (January 2006)
Hourly Data Report for January 23, 2006
TIME
LST
Temp Definition
°C
Dew Point Definition
°C
Rel Hum Definition
%
Precip. Amount Definition
mm

Wind Dir Definition
10's deg

Wind Spd Definition
km/h
Visibility Definition
km
Stn Press Definition
kPa
Hmdx Definition


Wind Chill Definition


Weather Definition


00:00 1.4 -0.5 87   LegendMM LegendMM   100.98     LegendNANA
01:00 1.4 -0.4 88   LegendMM LegendMM   100.84     LegendNANA
02:00 1.4 -0.5 87   LegendMM LegendMM   100.79     LegendNANA
03:00 0.9 -0.5 90   LegendMM LegendMM   100.64     LegendNANA
04:00 1.1 -0.5 89   LegendMM LegendMM   100.60     LegendNANA
05:00 1.1 -0.5 89   LegendMM LegendMM   100.46     LegendNANA
06:00 1.1 -0.6 88   LegendMM LegendMM   100.42     LegendNANA
07:00 1.3 -0.6 87   LegendMM LegendMM   100.36     LegendNANA
08:00 0.6 -0.9 90   LegendMM LegendMM   100.35     LegendNANA
09:00 0.8 -0.8 89   LegendMM LegendMM   100.33     LegendNANA
10:00 1.9 -0.3 85   LegendMM LegendMM   100.31     LegendNANA
11:00 3.4 -3.0 63   LegendMM LegendMM   100.27     LegendNANA
12:00 3.3 -4.7 56   LegendMM LegendMM   100.22     LegendNANA
13:00 4.3 -4.0 55   LegendMM LegendMM   100.15     LegendNANA
14:00 4.4 -3.7 56   LegendMM LegendMM   100.10     LegendNANA
15:00 3.6 -2.5 64   LegendMM LegendMM   100.07     LegendNANA
16:00 3.2 -2.7 65   LegendMM LegendMM   100.10     LegendNANA
17:00 2.8 -2.8 67   LegendMM LegendMM   100.11     LegendNANA
18:00 2.3 -3.0 68   LegendMM LegendMM   100.13     LegendNANA
19:00 1.9 -3.4 68   LegendMM LegendMM   100.15     LegendNANA
20:00 1.5 -3.7 68   LegendMM LegendMM   100.16     LegendNANA
21:00 1.3 -4.0 68   LegendMM LegendMM   100.13     LegendNANA
22:00 0.4 -4.6 69   LegendMM LegendMM   100.11     LegendNANA
23:00 -0.3 -5.0 71   LegendMM LegendMM   100.07     LegendNANA

Notes on Data Quality.

Legend

  • E = Estimated
  • M = Missing
  • NA = Not Available*
  • [empty] = Indicates an unobserved value
Date modified: